Regional Weather Roundup
Issued by NWS Sterling, VA

Home | Current Version | Previous Version | Graphics & Text | Print | Product List | Glossary On
Versions: 1 2 3 4 5 6 7 8 9 10 11 12 13 14 15 16 17 18 19 20 21 22 23 24 25 26 27 28 29 30 31 32 33 34 35 36 37 38 39 40 41 42 43 44 45 46 47 48 49 50
000
ASUS41 KLWX 222211
RWRLWX

REGIONAL WEATHER ROUNDUP
NATIONAL WEATHER SERVICE BALTIMORE MD/WASHINGTON DC
600 PM EDT FRI JUL 22 2016

Note: "FAIR" indicates few or no clouds below 12,000 feet
with no significant weather and/or obstructions to visibility.
 TC=TEMPERATURE CELSIUS

 * =Non NWS site. Station does not report precipitation (e.g. rain,
    snow, etc.), thunder, or fog.

DCZ001-MDZ009-015-VAZ040>042-051-053>054-222300-
WASHINGTON METRO

CITY           SKY/WX    TMP DP  RH WIND       PRES   REMARKS
WASHINGTON NAT CLOUDY    91  72  53 S16       29.90F HX  98
DULLES         PTSUNNY   91  68  46 SW8       29.91F HX  95
ANDREWS AFB    SUNNY     88  71  56 S13       29.90F HX  94
FT BELVOIR     FAIR      91  71  51 VRB6      29.90F HX  97
QUANTICO       FAIR      90  74  59 S13       29.92F HX  99
COLLEGE PARK*  FAIR      91  70  49 S8        29.89F HX  97
LEESBURG*      FAIR      93  72  49 W7        29.93S HX 100
MANASSAS*      SUNNY     91  72  52 SW8       29.91F HX  98
GAITHERSBURG*  CLOUDY    88  70  55 NW6       29.96R HX  92

$$

MDZ006>007-011-014-222300-
BALTIMORE METRO

CITY           SKY/WX    TMP DP  RH WIND       PRES   REMARKS
BWI AIRPORT    PTSUNNY   91  68  46 S7        29.89F HX  95
MD SCIENCE CTR   N/A     94  68  42 MISG      29.89F HX  98
MARTIN STATE   MOSUNNY   91  72  52 SW5       29.89F HX  98
ANNAPOLIS      MOSUNNY   91  71  51 S10       29.89F HX  97
FORT MEADE*    MOSUNNY   86  73  66 SW3       29.92F HX  93

$$

MDZ012-015-019>023-222300-
MARYLAND EASTERN SHORE

CITY           SKY/WX    TMP DP  RH WIND       PRES   REMARKS
OCEAN CITY     SUNNY     86  74  67 SW16G23   29.93F HX  94
SALISBURY      SUNNY     86  75  69 SW12      29.93F HX  95
BAY BRIDGE AP* MOSUNNY   90  72  55 S8        29.89F HX  96
CAMBRIDGE*     MOSUNNY   88  70  55 S6        29.92F HX  92
EASTON*        MOSUNNY   91  75  59 SW14      29.94F HX 102

$$

MDZ017>025-222300-
SOUTHERN MARYLAND

CITY           SKY/WX    TMP DP  RH WIND       PRES   REMARKS
PATUXENT RIVER MOSUNNY   90  68  48 SW12      29.92F HX  94
ST INIGOES     SUNNY     90  72  55 SW7       29.92F HX  97
LEONARDTOWN*   SUNNY     90  66  45 SW8       29.94F HX  92

$$

MDZ003>005-222300-
NORTH CENTRAL MARYLAND

CITY           SKY/WX    TMP DP  RH WIND       PRES   REMARKS
FREDERICK*     SUNNY     90  70  51 W9        29.94S HX  95
HAGERSTOWN APT MOSUNNY   89  63  41 W7        29.93F HX  90

$$

MDZ501>502-222300-
WESTERN MARYLAND

CITY           SKY/WX    TMP DP  RH WIND       PRES   REMARKS
OAKLAND*       MOSUNNY   75  68  78 W6        30.12S
CUMBERLAND*    MOSUNNY   91  64  40 W8        29.99F HX  93

$$

VAZ025>031-222300-
SHENANDOAH VALLEY

CITY           SKY/WX    TMP DP  RH WIND       PRES   REMARKS
WINCHESTER*    FAIR      90  68  48 W7        29.95S HX  93
FRONT ROYAL*   FAIR      88  70  55 W5        29.94S HX  92
LURAY*         FAIR      90  70  51 SW8       29.97S HX  95
NEW MARKET*    FAIR     N/A N/A N/A W3        29.96S
STAUNTON*      FAIR      81  72  74 E7        30.03S
WAYNESBORO*    FAIR      85  68  55 W5        30.02F

$$

WVZ021-048>050-054>055-222300-
EASTERN WEST VIRGINIA PANHANDLE

CITY           SKY/WX    TMP DP  RH WIND       PRES   REMARKS
MARTINSBURG    FAIR      90  63  40 W12       29.93S HX  91
PETERSBURG*    FAIR      90  72  55 CALM      29.98S HX  96

$$

VAZ036>039-050-222300-
CENTRAL FOOTHILLS

CITY           SKY/WX    TMP DP  RH WIND       PRES   REMARKS
CHARLOTTESVILL FAIR      89  68  49 S6        29.96F HX  93
CULPEPER*      FAIR      89  74  60 SW6       29.94F HX  98
ORANGE*          N/A     91  68  46 CALM      29.97F HX  95
GORDONSVILLE*  FAIR      91  72  54 S6        29.95F HX  98
WARRENTON*     FAIR      92  67  42 SW6       29.92F HX  95

$$

VAZ055>057-222300-
NORTH AND CENTRAL PIEDMONT

CITY           SKY/WX    TMP DP  RH WIND       PRES   REMARKS
FREDERICKSBRG*   N/A     92  70  48 SW9       29.92F HX  98
STAFFORD*      FAIR      91  68  46 SW5       29.97F HX  95

$$

NCZ024-NYZ072-PAZ021-071-VAZ022-071-222300-
OTHER REGIONAL OBSERVATIONS

CITY           SKY/WX    TMP DP  RH WIND       PRES   REMARKS
NEW YORK CITY  SUNNY     93  69  45 MISG      29.83F HX  98
PHILADELPHIA   PTSUNNY   91  70  49 SW18      29.86F HX  96
PITTSBURGH     MOSUNNY   88  64  44 W12       29.99F
ROANOKE        FAIR      87  66  49 NW10      30.04F
RICHMOND       FAIR      91  69  48 SW7       29.94F HX  96
RALEIGH        MOSUNNY   91  74  57 S14       29.99F HX 100

$$

ANZ530>537-222300-
MARINE OBSERVATIONS

STATION/POSITION TIME  TEMP    WIND        PRES
                       AIR SEA DIR/SP/G
                 (UTC) (F)     (DEG/KT/KT) (MB)
THOMAS PT LIGHT  2200   86 84  180/ 12/ 13 1013.6F
BALT KEY BRIDGE  2142   91     240/ 10/ 11   N/A
COVE POINT       2142   91     240/  8/ 11   N/A
LEWISETTA        2142   86 83   90/  3/  3   N/A
SOLOMONS ISLAND  2142   89 83  250/ 10/ 12   N/A
PINEY POINT      2136          350/  8/  9   N/A

$$




USA.gov is the U.S. government's official web portal to all federal, state and local government web resources and services.